Regional Weather Roundup
Issued by NWS Boston, MA

Home | Current Version | Previous Version | Text Only | Print | Product List | Glossary On
Versions: 1 2 3 4 5 6 7 8 9 10 11 12 13 14 15 16 17 18 19 20 21 22 23 24 25 26 27 28
000
ASUS41 KBOX 171910
RWRBOX

REGIONAL WEATHER ROUNDUP
NATIONAL WEATHER SERVICE TAUNTON MA
200 PM EST FRI NOV 17 2017

NOTE:  "FAIR" INDICATES FEW OR NO CLOUDS BELOW 12,000 FEET WITH NO
SIGNIFICANT WEATHER AND/OR OBSTRUCTIONS TO VISIBILITY.

MAZALL-172000-
EASTERN MASSACHUSETTS

CITY           SKY/WX    TMP DP  RH WIND       PRES   REMARKS
BOSTON         MOSUNNY   43  23  45 NW18G26   29.88R
BEVERLY        SUNNY     42  23  46 NW17G26   29.86F
LAWRENCE       SUNNY     42  22  44 NW15G25   29.89S
BEDFORD        MOSUNNY   42  20  41 NW18G25   29.89R
BLUE HILL      NOT AVBL
NORWOOD        SUNNY     45  23  42 NW14G26   29.89S
MARSHFIELD     SUNNY     45  25  45 NW9G20    29.87R
PLYMOUTH       SUNNY     45  23  42 NW16G28   29.87R
TAUNTON        SUNNY     46  23  40 NW10G23   29.88S
NEW BEDFORD    SUNNY     46  24  42 NW14G21   29.87S
$$

MAZALL-172000-
CAPE COD AND THE ISLANDS

CITY           SKY/WX    TMP DP  RH WIND       PRES   REMARKS
FALMOUTH       SUNNY     45  23  42 NW15G25   29.87R
HYANNIS        SUNNY     46  26  45 NW12G23   29.84S
CHATHAM        SUNNY     44  28  53 NW12G25   29.85R
PROVINCETOWN   SUNNY     43  27  53 NW24G35   29.86R
NANTUCKET      SUNNY     45  29  53 NW16G26   29.85S
MARTHAS VNYRD  SUNNY     46  25  43 NW15G24   29.87R
$$

MAZALL-172000-
CENTRAL AND WESTERN MASSACHUSETTS

CITY           SKY/WX    TMP DP  RH WIND       PRES   REMARKS
WORCESTER      SUNNY     40  16  37 NW22G30   29.89R WCI  30
FITCHBURG      SUNNY     44  22  41 NW22      29.91R
ORANGE         SUNNY     40  20  44 NW15      29.93S WCI  32
SPRINGFIELD    MOSUNNY   44  19  36 W12G20    29.95R
WESTFIELD      SUNNY     42  20  41 NW22G29   29.97R
NORTH ADAMS    SUNNY     39  19  44 W14G23    29.98R WCI  31
PITTSFIELD     SUNNY     36  18  48 W12G20    29.97R WCI  28
$$

RIZALL-172000-
RHODE ISLAND

CITY           SKY/WX    TMP DP  RH WIND       PRES   REMARKS
PROVIDENCE     MOSUNNY   47  25  42 NW17G24   29.91R
NEWPORT        SUNNY     46  24  42 NW17G25   29.89R
BLOCK ISLAND   SUNNY     45  25  45 NW15G25   29.93S
SMITHFIELD     SUNNY     44  24  45 NW14G24   29.89R
WESTERLY       SUNNY     47  24  40 W12G21    29.94R
$$

CTZALL-172000-
CONNECTICUT

CITY           SKY/WX    TMP DP  RH WIND       PRES   REMARKS
BRADLEY INTL   MOSUNNY   43  20  39 W16G25    29.99R
HARTFORD       SUNNY     44  21  40 NW14G23   29.99S
BRIDGEPORT     SUNNY     50  17  27 NW18G25   29.98F
DANBURY        SUNNY     48  16  27 NW10      30.01S
GROTON         SUNNY     46  23  40 NW20      29.95R
NEW HAVEN      SUNNY     49  19  30 NW12G24   29.99R
CHESTER        FAIR      45  19  36 NW13G29   29.96S
MERIDEN        SUNNY     45  20  36 NW16G28   29.99R
WILLIMANTIC    SUNNY     44  22  41 NW10G28   29.96R
OXFORD         SUNNY     43  17  35 NW14G23   29.98R
$$

MEZ002-015-021-024-NHZ003-005-008-011-012-014-VTZ005-008-172000-
NORTHERN NEW ENGLAND

CITY           SKY/WX    TMP DP  RH WIND       PRES   REMARKS
PORTLAND ME    MOSUNNY   40  23  50 NW10G21   29.81R
BANGOR ME      CLOUDY    35  24  64 NW20G29   29.72R WCI  24
CONCORD NH     MOSUNNY   36  22  56 NW18G30   29.90S WCI  26
MANCHESTER NH  MOSUNNY   38  20  48 NW22G30   29.89S WCI  27
NASHUA NH      MOSUNNY   41  22  46 NW14G26   29.90S
PORTSMOUTH NH  MOSUNNY   39  21  48 NW16G25   29.84R WCI  30
JAFFREY NH     SUNNY     38  21  50 VRB7G16   29.90S
KEENE NH       SUNNY     40  20  44 NW7       29.94S
BURLINGTON VT  PTSUNNY   34  19  54 N13       30.05R WCI  25
MT. WASHINGTON BLWGSNOW   7   7 100 NW81G91     N/A  VSB 1/8 WCI -26
$$

NYZ052-076-172000-
EASTERN NEW YORK

CITY           SKY/WX    TMP DP  RH WIND       PRES   REMARKS
ALBANY         MOSUNNY   39  19  44 W21G30    30.06S WCI  29
NEW YORK CITY  MOSUNNY   48  21  34 NW17G26   30.05S
$$

ANZALL-172000-
MARINE OBSERVATIONS

STATION/POSITION TIME  TEMP    WIND        PRES    VSBY  WAVE
                       AIR SEA DIR/SP/G                  HT/PER
                 (UTC) (F)     (DEG/KT/KT) (MB)    (MI)  (FT/S)
BOSTON BUOY      1850   42 51  300/ 25/ 31 1009.7R         5/ 4
BUZZARDS BAY     1800   43     310/ 20/ 22 1012.4F
NANTUCKET SOUND  1850   44 49  310/ 19/ 23 1010.6R         3/ 5
MASS BAY-STELLWA 1804   41 50  320/ 21/ 27 1009.6F         4/ 4
ISLE OF SHOALS   1800   37     290/ 27/ 32 1009.4R
S OF BLOCK IS    NOT AVBL
$$

......................KEY.........................
  SKY/WX - SKY CONDITION/PRESENT WEATHER
  TMP    - TEMPERATURE IN FAHRENHEIT
  DWPT   - DEWPOINT IN FAHRENHEIT
  RH     - RELATIVE HUMIDITY IN PERCENT
  WIND   - DIRECTION AND SPEED IN MPH
  PRES   - MEAN SEA LEVEL PRESSURE IN INCHES OF HG
  WCI    - WIND CHILL INDEX
  VSB    - VISIBILITY IN MILES
  HX     - HEAT INDEX
  TC     - TEMPERATURE IN CELSIUS
  VRB    - VARIABLE WIND DIRECTION
  N/A    - NOT AVAILABLE




USA.gov is the U.S. government's official web portal to all federal, state and local government web resources and services.